アトラス彗星

C/2018 L2 ( ATLAS )

English version
Home page
Updated on February 9, 2019

---------------------------------------------------------------------

・ プロフィール

発見日 2018年6月6日
発見光度 15.6等
発見者 Asteroid Terrestrial-impact Last Alert System (ATLAS) search program

・ 写真集

・ 軌道要素

Epoch 2018 Nov. 18.0 TT = JDT 2458440.5
T 2018 Dec. 2.57465 TT                                  MPCW
q   1.7117555            (2000.0)            P               Q
z  +0.0040717      Peri.   56.22586     +0.03216118     +0.56732966
 +/-0.0000045      Node   243.01833     -0.89267773     +0.38660270
e   0.9930303      Incl.   67.42380     +0.44954659     +0.72710069
From 300 observations 2018 June 4-Oct. 12, mean residual 0".5.

・ 星図

・ 光度変化

        m1 = 3.0 + 5 logΔ + 25.0 log r

---------------------------------------------------------------------

軌道要素はM.P.E.C. 2018-U70に掲載されたものです。
星図はステラナビゲータ Ver.10 (アストロアーツ) で作成したものです。
光度グラフはComet for Windowsで作成したものです。

---------------------------------------------------------------------

Copyright(C) Seiichi Yoshida (comet@aerith.net). All rights reserved.